Location: Kershaw
(34.5481°N, 80.5823°W)
Time: 02:56:12
(UTC+00:00)

Tiros 1 despin weight - Pass Details

Date: 11 October 2022
Orbit: 590 x 637 km, 48.2° (Epoch: 30 November)

Event Time Altitude Azimuth Distance (km) Brightness Sun altitude
Rises 20:21:43 0° 297° (WNW) 2,831 ? 28.2°
Reaches altitude 10° 20:25:01 10° 323° (NW) 1,939 ? 27.7°
Maximum altitude 20:27:24 14° 356° (N) 1,691 ? 27.3°
Drops below altitude 10° 20:29:48 10° 29° (NNE) 1,955 ? 26.8°
Sets 20:33:09 0° 54° (NE) 2,871 ? 26.2°
